User: anonymous   Login
Location: Caltech
(34.1382°N, 118.1253°W)
Time: 13:53:18
(UTC-07:00)
Language:

Gbstr 26 Del rocket - Orbit

View from above orbital plane
View from above orbital plane
View from above satellite
View from above satellite

Ground track
Ground track

The orbit data is extracted from the following two-line orbital elements,

1 25876U 99041E   17202.15102412 -.00000125 +00000-0 +20648-4 0  9992
2 25876 051.7623 182.8602 0532014 126.9927 238.0925 14.04064884919379
Epoch (UTC): 21 July 2017 03:37:28
Eccentricity: 0.0532014
inclination: 51.7623°
perigee height: 493 km
apogee height: 1266 km
right ascension of ascending node: 182.8602°
argument of perigee: 126.9927°
revolutions per day: 14.04064884
mean anomaly at epoch: 238.0925°
orbit number at epoch: 91937

The dashed part of the orbit path shows where the satellite is in the earth's shadow,  

DLR